Tracking 19245 objects as of 14-Aug-2018
HD Live streaming from Space Station
objects crossing your sky now

IRIDIUM 52

Track IRIDIUM 52 now!
10-day predictions
IRIDIUM 52 is classified as:


NORAD ID: 25169
Int'l Code: 1998-010A
Perigee: 783.2 km
Apogee: 786.4 km
Inclination: 86.4 °
Period: 100.4 minutes
Semi major axis: 7155 km
RCS: 3.8418 m2 (large)
Launch date: February 18, 1998
Source: United States (US)
Launch site: AIR FORCE WESTERN TEST RANGE (AFWTR)
aabbcc
Your satellite tracking list
Your tracking list is empty




NASA's NSSDC Master Catalog

Two Line Element Set (TLE):
1 25169U 98010A   18224.81302402 +.00000104 +00000-0 +29926-4 0  9995
2 25169 086.4004 174.1713 0002196 085.7574 274.3872 14.34219436071935
Source of the keplerian elements: AFSPC